Regional Weather Roundup
Issued by NWS Bismarck, ND

Home | Current Version | Previous Version | Text Only | Print | Product List | Glossary On
Versions: 1 2 3 4 5 6 7 8 9 10 11 12 13 14 15 16 17 18 19 20 21 22 23 24 25 26 27 28 29 30 31 32 33 34 35 36 37 38 39 40 41 42 43 44 45 46 47 48 49 50
724
ASUS43 KBIS 220110
RWRBIS

NWR BROADCAST TEXT
NATIONAL WEATHER SERVICE BISMARCK ND
800 PM CDT MON AUG 21 2017

NOTE: "FAIR" INDICATES FEW OR NO CLOUDS BELOW 12,000 FEET WITH NO
SIGNIFICANT WEATHER AND/OR OBSTRUCTIONS TO VISIBILITY.


CITY           SKY/WX    TMP DP  RH WIND       PRES   REMARKS
WILLISTON      CLEAR     73  33  23 N12G20    30.11R
MINOT          CLEAR     70  39  32 NW10      30.04S
MINOT AFB        N/A     70  37  30 N9        30.03S
BISMARCK       CLEAR     72  40  31 NW10      30.05S
DICKINSON      CLEAR     70  35  27 N14       30.11R
GARRISON         N/A     68  38  33 NW14G24   30.06R
HETTINGER ARPT CLEAR     70  41  34 N10       30.13R
JAMESTOWN      CLEAR     68  48  48 NW14      29.98R
CARRINGTON     FAIR      66  48  52 NW9G16    30.02S
HAZEN          FAIR      68  43  40 NW8       30.09R
LINTON         FAIR      70  43  37 N9G17     30.06S
MANDAN         FAIR      68  41  37 NW9       30.07R
RUGBY          FAIR      68  41  37 NW13      30.02R
STANLEY        FAIR      68  36  30 NW12      30.11S
TIOGA          FAIR      68  34  28 NW14      30.11S
WATFORD CITY   FAIR      72  34  25 NW13      30.10S
$$

CITY           SKY/WX    TMP DP  RH WIND       PRES   REMARKS
GRAND FORKS    PTCLDY    69  55  60 N25G35    29.90R
GRAND FORKS AF PTCLDY    68  53  58 N20G26    29.93R
DEVILS LAKE    CLEAR     66  50  56 NW9       29.99R
FARGO          CLEAR     70  58  65 NW9       29.89S
CANDO          FAIR      66  46  48 NW10      30.02R
CAVALIER       FAIR      63  55  77 N10G16    29.96R
GRAFTON        FAIR      63  59  88 NW8       29.96R
GWINNER        PTCLDY    70  59  68 NW9G16    29.95R
LANGDON        MOCLDY    63  52  67 NW8       30.00R
ROLLA          FAIR      63  43  48 NW9       30.02R
WALHALLA       FAIR      64  63  94 N9        29.98R
$$

CITY           SKY/WX    TMP DP  RH WIND       PRES   REMARKS
ABERDEEN       CLEAR     73  54  51 N14       29.98R
MOBRIDGE       CLEAR     71  49  45 N12       30.03R
BUFFALO          N/A     74  39  28 N9        30.08S
RAPID CITY     CLEAR     74  39  28 NE12      30.14S
GLASGOW        SUNNY     75  34  22 NW9       30.13S
SIDNEY         CLEAR     73  36  25 N9        30.12R
WOLF POINT     CLEAR     77  35  21 NW12      30.12S
GLENDIVE       CLEAR     74  36  25 NW14      30.13S
MILES CITY     CLEAR     79  31  17 N8        30.13S
BAKER          CLEAR     73  34  23 NW14      30.16R
$$

CITY           SKY/WX    TMP DP  RH WIND       PRES   REMARKS
BILLINGS       MOSUNNY   78  31  17 E9        30.15S
GREAT FALLS    CLOUDY    77  34  21 E7        30.14F
REGINA         PTCLDY    68  34  28 N10G17    30.10S
ESTEVAN        MOCLDY    66  36  32 NW12G20   30.09R
$$





USA.gov is the U.S. government's official web portal to all federal, state and local government web resources and services.